| time (UTC) | temp C | wind direction | speed KPH | gust KPH | rain 1hr cm | rain 24hr cm | rain mn cm | humidity % | barometer mb |
| 20260506033006 | 18 | 132 | 0.0 | 0.0 | 0.00 | 0.00 | 0.00 | 61 | 1013.3 |
| 20260506031514 | 18 | 132 | 0.0 | 0.0 | 0.00 | 0.00 | 0.00 | 60 | 1013.5 |
| 20260506030006 | 19 | 132 | 0.0 | 0.0 | 0.00 | 0.00 | 0.00 | 58 | 1013.7 |
| 20260506024510 | 20 | 132 | 0.0 | 0.0 | 0.00 | 0.00 | 0.00 | 57 | 1013.6 |
| 20260506023003 | 20 | 132 | 0.0 | 0.0 | 0.00 | 0.00 | 0.00 | 57 | 1013.5 |
| 20260506021502 | 20 | 132 | 0.0 | 0.0 | 0.00 | 0.00 | 0.00 | 56 | 1013.3 |
| 20260506020002 | 20 | 132 | 0.0 | 0.0 | 0.00 | 0.00 | 0.00 | 55 | 1013.1 |
| 20260506014601 | 21 | 132 | 0.0 | 0.0 | 0.00 | 0.00 | 0.00 | 54 | 1013.1 |
| 20260506013100 | 21 | 132 | 0.0 | 0.0 | 0.00 | 0.00 | 0.00 | 52 | 1013.2 |
| 20260506011607 | 21 | 132 | 0.0 | 1.6 | 0.00 | 0.00 | 0.00 | 52 | 1013.3 |
| 20260506010100 | 22 | 132 | 0.0 | 0.0 | 0.00 | 0.00 | 0.00 | 51 | 1013.1 |
| 20260506004600 | 22 | 132 | 0.0 | 1.6 | 0.00 | 0.00 | 0.00 | 50 | 1013.2 |
| 20260506003058 | 22 | 132 | 0.0 | 0.0 | 0.00 | 0.00 | 0.00 | 50 | 1013.1 |
| 20260506001557 | 22 | 132 | 0.0 | 0.0 | 0.00 | 0.00 | 0.00 | 48 | 1013.0 |
| 20260506000101 | 23 | 132 | 0.0 | 1.6 | 0.00 | 0.00 | 0.00 | 47 | 1013.0 |
| 20260505234604 | 24 | 132 | 0.0 | 0.0 | 0.00 | 0.00 | 0.00 | 45 | 1013.0 |
| 20260505233109 | 25 | 132 | 0.0 | 3.2 | 0.00 | 0.00 | 0.00 | 43 | 1012.9 |
| 20260505231557 | 25 | 154 | 0.0 | 4.8 | 0.00 | 0.00 | 0.00 | 41 | 1012.7 |
| 20260505230053 | 25 | 169 | 4.8 | 11.3 | 0.00 | 0.00 | 0.00 | 40 | 1012.9 |
| 20260505224553 | 25 | 157 | 0.0 | 12.9 | 0.00 | 0.00 | 0.00 | 39 | 1012.9 |
| 20260505223054 | 26 | 176 | 3.2 | 11.3 | 0.00 | 0.00 | 0.00 | 39 | 1013.0 |
| 20260505221551 | 26 | 216 | 0.0 | 9.7 | 0.00 | 0.00 | 0.00 | 38 | 1012.8 |
| 20260505220050 | 26 | 224 | 1.6 | 8.0 | 0.00 | 0.00 | 0.00 | 37 | 1012.8 |
| 20260505214554 | 26 | 157 | 3.2 | 14.5 | 0.00 | 0.00 | 0.00 | 37 | 1012.8 |
| 20260505213046 | 26 | 221 | 0.0 | 16.1 | 0.00 | 0.00 | 0.00 | 36 | 1012.8 |
| 20260505211546 | 26 | 169 | 1.6 | 9.7 | 0.00 | 0.00 | 0.00 | 35 | 1013.0 |
| 20260505210044 | 26 | 217 | 0.0 | 9.7 | 0.00 | 0.00 | 0.00 | 34 | 1013.1 |
| 20260505204546 | 27 | 108 | 0.0 | 9.7 | 0.00 | 0.00 | 0.00 | 32 | 1013.2 |
| 20260505203042 | 26 | 218 | 0.0 | 16.1 | 0.00 | 0.00 | 0.00 | 35 | 1013.1 |
| 20260505201540 | 27 | 152 | 1.6 | 11.3 | 0.00 | 0.00 | 0.00 | 33 | 1013.4 |
| 20260505200044 | 27 | 246 | 3.2 | 12.9 | 0.00 | 0.00 | 0.00 | 34 | 1013.6 |
| 20260505194539 | 27 | 141 | 1.6 | 12.9 | 0.00 | 0.00 | 0.00 | 32 | 1013.8 |
| 20260505193037 | 27 | 217 | 3.2 | 14.5 | 0.00 | 0.00 | 0.00 | 33 | 1014.0 |
| 20260505191537 | 27 | 253 | 0.0 | 6.4 | 0.00 | 0.00 | 0.00 | 33 | 1014.3 |
| 20260505190038 | 27 | 134 | 0.0 | 6.4 | 0.00 | 0.00 | 0.00 | 33 | 1014.5 |
| 20260505184533 | 27 | 219 | 1.6 | 17.7 | 0.00 | 0.00 | 0.00 | 33 | 1014.6 |
| 20260505183037 | 27 | 216 | 0.0 | 9.7 | 0.00 | 0.00 | 0.00 | 34 | 1014.7 |
| 20260505181531 | 27 | 310 | 1.6 | 12.9 | 0.00 | 0.00 | 0.00 | 37 | 1015.0 |
| 20260505180036 | 27 | 157 | 8.0 | 12.9 | 0.00 | 0.00 | 0.00 | 35 | 1015.2 |
| 20260505174539 | 27 | 307 | 1.6 | 6.4 | 0.00 | 0.00 | 0.00 | 33 | 1015.5 |
| 20260505173030 | 27 | 191 | 0.0 | 6.4 | 0.00 | 0.00 | 0.00 | 35 | 1015.7 |
| 20260505171529 | 27 | 157 | 1.6 | 8.0 | 0.00 | 0.00 | 0.00 | 34 | 1016.0 |
| 20260505170027 | 27 | 224 | 0.0 | 9.7 | 0.00 | 0.00 | 0.00 | 35 | 1015.8 |
| 20260505164526 | 27 | 143 | 8.0 | 24.1 | 0.00 | 0.00 | 0.00 | 33 | 1015.8 |
| 20260505163020 | 25 | 219 | 3.2 | 8.0 | 0.00 | 0.00 | 0.00 | 39 | 1015.9 |
| 20260505161516 | 22 | 25 | 1.6 | 11.3 | 0.00 | 0.00 | 0.00 | 61 | 1016.2 |
| 20260505153011 | 20 | 36 | 8.0 | 11.3 | 0.00 | 0.00 | 0.00 | 64 | 1016.7 |
| 20260505151508 | 20 | 51 | 4.8 | 11.3 | 0.00 | 0.00 | 0.00 | 69 | 1016.8 |
| 20260505130110 | 17 | 190 | 3.2 | 9.7 | 0.00 | 0.00 | 0.00 | 66 | 1016.2 |
| 20260505124559 | 17 | 188 | 3.2 | 8.0 | 0.00 | 0.00 | 0.00 | 66 | 1016.1 |
| 20260505123051 | 17 | 145 | 1.6 | 4.8 | 0.00 | 0.00 | 0.00 | 64 | 1016.2 |
| 20260505121550 | 16 | 159 | 1.6 | 4.8 | 0.00 | 0.00 | 0.00 | 66 | 1016.1 |
| 20260505120055 | 16 | 138 | 0.0 | 0.0 | 0.00 | 0.00 | 0.00 | 66 | 1015.8 |
| 20260505114541 | 15 | 218 | 0.0 | 0.0 | 0.00 | 0.00 | 0.00 | 71 | 1015.8 |
| 20260505113044 | 14 | 219 | 0.0 | 0.0 | 0.00 | 0.00 | 0.00 | 72 | 1015.7 |
| 20260505111540 | 12 | 203 | 0.0 | 0.0 | 0.00 | 0.00 | 0.00 | 78 | 1015.5 |
| 20260505101527 | 11 | 201 | 0.0 | 0.0 | 0.00 | 0.00 | 0.00 | 77 | 1015.0 |
| 20260505100030 | 11 | 213 | 0.0 | 0.0 | 0.00 | 0.00 | 0.00 | 77 | 1015.1 |
| 20260505094524 | 11 | 212 | 0.0 | 0.0 | 0.00 | 0.00 | 0.00 | 76 | 1015.0 |
| 20260505093023 | 11 | 212 | 0.0 | 0.0 | 0.00 | 0.00 | 0.00 | 75 | 1015.2 |
| 20260505091522 | 11 | 212 | 0.0 | 0.0 | 0.00 | 0.00 | 0.00 | 73 | 1015.2 |
| 20260505090020 | 11 | 166 | 0.0 | 0.0 | 0.00 | 0.00 | 0.00 | 72 | 1015.2 |
| 20260505084520 | 11 | 166 | 0.0 | 1.6 | 0.00 | 0.00 | 0.00 | 70 | 1014.9 |
| 20260505083017 | 12 | 202 | 0.0 | 0.0 | 0.00 | 0.00 | 0.00 | 68 | 1014.9 |
| 20260505081512 | 12 | 165 | 0.0 | 1.6 | 0.00 | 0.00 | 0.00 | 68 | 1014.8 |
| 20260505080012 | 12 | 134 | 1.6 | 4.8 | 0.00 | 0.00 | 0.00 | 70 | 1014.8 |
| 20260505074509 | 12 | 200 | 0.0 | 0.0 | 0.00 | 0.00 | 0.00 | 66 | 1014.8 |
| 20260505073009 | 13 | 224 | 0.0 | 0.0 | 0.00 | 0.00 | 0.00 | 65 | 1014.8 |
| 20260505071520 | 13 | 210 | 0.0 | 6.4 | 0.00 | 0.00 | 0.00 | 65 | 1014.9 |
| 20260505070005 | 13 | 173 | 0.0 | 6.4 | 0.00 | 0.00 | 0.00 | 67 | 1014.7 |
| 20260505064510 | 13 | 220 | 0.0 | 0.0 | 0.00 | 0.00 | 0.00 | 65 | 1014.6 |
| 20260505063001 | 13 | 221 | 0.0 | 0.0 | 0.00 | 0.00 | 0.00 | 64 | 1014.5 |
| 20260505061602 | 13 | 221 | 0.0 | 0.0 | 0.00 | 0.00 | 0.00 | 64 | 1014.6 |
| 20260505060100 | 13 | 221 | 0.0 | 0.0 | 0.00 | 0.00 | 0.00 | 64 | 1014.7 |
| 20260505054559 | 13 | 221 | 0.0 | 0.0 | 0.00 | 0.00 | 0.00 | 64 | 1014.7 |
| 20260505053102 | 13 | 221 | 0.0 | 0.0 | 0.00 | 0.00 | 0.00 | 63 | 1014.8 |
| 20260505051550 | 14 | 221 | 0.0 | 0.0 | 0.00 | 0.00 | 0.00 | 61 | 1015.0 |
| 20260505041543 | 15 | 220 | 0.0 | 0.0 | 0.00 | 0.00 | 0.00 | 59 | 1015.0 |
| 20260505040043 | 15 | 221 | 0.0 | 0.0 | 0.00 | 0.00 | 0.00 | 58 | 1015.1 |
| 20260505034540 | 15 | 221 | 0.0 | 0.0 | 0.00 | 0.00 | 0.00 | 57 | 1015.1 |